Weather History for Edwards AFB, CA

Change the Weather History Date:

Tuesday, November 22, 2011

  Actual Average Record
Temperature  
Mean Temperature 42 °F -  
Max Temperature 56 °F 61 °F 75 °F (1998)
Min Temperature 29 °F 33 °F 24 °F (2007)
Degree Days  
Heating Degree Days 22    
Moisture  
Dew Point 36 °F    
Average Humidity 86    
Maximum Humidity 100    
Minimum Humidity 49    
Precipitation  
Precipitation 0.00 in - - ()
Sea Level Pressure  
Sea Level Pressure 30.27 in    
Wind  
Wind Speed 2 mph (West)    
Max Wind Speed 6 mph    
Max Gust Speed -    
Visibility 10 miles    
Events      
Averages and records for this station are not official NWS values.
T = Trace of Precipitation, MM = Missing Value Source: NWS Daily Summary

Daily Weather History Graph

Daily Weather History Graph

Search for Another Location

Airport:

Trip Planner

Search our weather history database for the weather conditions in past years. The results will help you decide how hot, cold, wet, or windy it might be!

Date:

Astronomy

Nov. 22, 2011 Rise Set
Actual Time 6:32 AM PST 4:42 PM PST
Civil Twilight 6:05 AM PST 5:09 PM PST
Nautical Twilight 5:34 AM PST 5:40 PM PST
Astronomical Twilight 5:04 AM PST 6:10 PM PST
Moon 3:33 AM PST (11/22) 2:41 PM PST (11/22)
Length of Visible Light 11h 04m
Length of Day
10h 10m
Waning Crescent, 9% of the Moon is Illuminated
Nov 22
Waning Crescent
Nov 24
New
Dec 2
First Quarter
Dec 10
Full
Dec 17
Last Quarter

Hourly Weather History & Observations

Time (PST) Temp. Windchill Dew Point Humidity Pressure Visibility Wind Dir Wind Speed Gust Speed Precip Events Conditions
12:55 AM 32.9 °F 29.8 °F 32.9 °F 100% 30.28 in 10.0 mi South 3.5 mph - N/A   Clear
1:55 AM 33.8 °F - 33.8 °F 100% 30.28 in 10.0 mi Calm Calm - N/A   Clear
2:55 AM 32.5 °F - 32.5 °F 100% 30.27 in 10.0 mi Calm Calm - N/A   Clear
3:55 AM 32.2 °F - 32.2 °F 100% 30.28 in 10.0 mi Calm Calm - N/A   Clear
4:55 AM 31.1 °F - 31.1 °F 100% 30.30 in 10.0 mi Calm Calm - N/A   Clear
5:55 AM 29.7 °F - 29.7 °F 100% 30.31 in 40.0 mi Calm Calm - N/A   Partly Cloudy
6:55 AM 30.6 °F - 30.6 °F 100% 30.33 in 40.0 mi Calm Calm - N/A   Partly Cloudy
7:55 AM 30.6 °F - 30.4 °F 99% 30.36 in 40.0 mi Calm Calm - N/A   Scattered Clouds
8:55 AM 37.4 °F 34.9 °F 37.4 °F 100% 30.36 in 40.0 mi WSW 3.5 mph - N/A   Scattered Clouds
9:55 AM 43.2 °F - 41.7 °F 95% 30.35 in 40.0 mi Calm Calm - N/A   Scattered Clouds
10:55 AM 47.3 °F - 41.7 °F 81% 30.33 in 40.0 mi Calm Calm - N/A   Mostly Cloudy
11:55 AM 51.1 °F - 40.6 °F 67% 30.29 in 40.0 mi Calm Calm - N/A   Mostly Cloudy
12:55 PM 53.4 °F - 39.4 °F 59% 30.26 in 40.0 mi Calm Calm - N/A   Mostly Cloudy
1:55 PM 55.0 °F - 37.9 °F 53% 30.23 in 90.0 mi NNE 3.5 mph - N/A   Mostly Cloudy
2:55 PM 55.9 °F - 38.3 °F 52% 30.22 in 70.0 mi Calm Calm - N/A   Mostly Cloudy
3:55 PM 56.1 °F - 37.4 °F 49% 30.21 in 90.0 mi NW 4.6 mph - N/A   Mostly Cloudy
4:55 PM 53.1 °F - 39.2 °F 59% 30.21 in 80.0 mi NW 4.6 mph - N/A   Mostly Cloudy
5:55 PM 51.8 °F - 39.0 °F 62% 30.21 in 70.0 mi WNW 4.6 mph - N/A   Mostly Cloudy
6:55 PM 44.1 °F 42.5 °F 40.5 °F 87% 30.22 in 70.0 mi East 3.5 mph - N/A   Mostly Cloudy
7:55 PM 41.2 °F - 41.0 °F 99% 30.24 in 60.0 mi Calm Calm - N/A   Mostly Cloudy
8:55 PM 41.9 °F - 40.5 °F 95% 30.23 in 50.0 mi Calm Calm - N/A   Mostly Cloudy
9:55 PM 37.0 °F 34.5 °F 37.0 °F 100% 30.23 in 50.0 mi East 3.5 mph - N/A   Mostly Cloudy
10:55 PM 35.2 °F 32.4 °F 35.2 °F 100% 30.22 in 10.0 mi SW 3.5 mph - N/A   Clear
11:55 PM 36.0 °F 31.1 °F 36.0 °F 100% 30.21 in 10.0 mi WSW 5.8 mph - N/A   Clear